Weather History for Saginaw, MI

Change the Weather History Date:

Friday, August 9, 2013

  Actual Average Record
Temperature  
Mean Temperature 68 °F 70 °F  
Max Temperature 81 °F 80 °F 95 °F (2001)
Min Temperature 55 °F 59 °F 48 °F (1999)
Degree Days  
Heating Degree Days 0    
Month to date heating degree days 0  
Since 1 June heating degree days 64  
Since 1 July heating degree days 11  
Cooling Degree Days 3    
Month to date cooling degree days 30  
Year to date cooling degree days 474  
Since 1 June cooling degree days 400  
Growing Degree Days 18 (Base 50)    
Moisture  
Dew Point 55 °F    
Average Humidity 66    
Maximum Humidity 90    
Minimum Humidity 42    
Precipitation  
Precipitation 0.00 in 0.11 in 1.11 in (2012)
Month to date precipitation 1.08 0.92  
Year to date precipitation 23.05 18.13  
Snow  
Snow 0.00 in - - ()
Month to date snowfall 0.0  
Since 1 June snowfall 0.0  
Since 1 July snowfall 0.0  
Snow Depth 0.00 in    
Sea Level Pressure  
Sea Level Pressure 29.98 in    
Wind  
Wind Speed 8 mph (West)    
Max Wind Speed 20 mph    
Max Gust Speed 25 mph    
Visibility 10 miles    
Events      
T = Trace of Precipitation, MM = Missing Value Source: NWS Daily Summary

Daily Weather History Graph

Daily Weather History Graph

Search for Another Location

Airport:

Trip Planner

Search our weather history database for the weather conditions in past years. The results will help you decide how hot, cold, wet, or windy it might be!

Date:

Astronomy

Aug. 09, 2013 Rise Set
Actual Time 6:34 AM EDT 8:48 PM EDT
Civil Twilight 6:03 AM EDT 9:19 PM EDT
Nautical Twilight 5:23 AM EDT 9:58 PM EDT
Astronomical Twilight 4:40 AM EDT 10:41 PM EDT
Moon 9:27 AM EDT (8/9) 9:49 PM EDT (8/9)
Length of Visible Light 15h 16m
Length of Day
14h 13m
Waxing Crescent, 7% of the Moon is Illuminated
Aug 9
Waxing Crescent
Aug 14
First Quarter
Aug 20
Full
Aug 28
Last Quarter
Sep 5
New

Hourly Weather History & Observations

Time (EDT) Temp. Heat Index Dew Point Humidity Pressure Visibility Wind Dir Wind Speed Gust Speed Precip Events Conditions
12:53 AM 62.1 °F - 54.0 °F 75% 30.01 in 10.0 mi Calm Calm - N/A   Clear
1:53 AM 62.1 °F - 54.0 °F 75% 30.01 in 10.0 mi Calm Calm - N/A   Clear
2:53 AM 61.0 °F - 53.1 °F 75% 30.00 in 10.0 mi Calm Calm - N/A   Clear
3:53 AM 57.0 °F - 53.1 °F 87% 29.99 in 10.0 mi NE 3.5 mph - N/A   Clear
4:53 AM 55.9 °F - 52.0 °F 87% 29.98 in 10.0 mi Calm Calm - N/A   Clear
5:53 AM 55.9 °F - 52.0 °F 87% 30.00 in 10.0 mi Calm Calm - N/A   Clear
6:53 AM 55.9 °F - 52.0 °F 87% 30.00 in 10.0 mi Calm Calm - N/A   Clear
7:53 AM 60.1 °F - 57.0 °F 90% 29.99 in 10.0 mi Calm Calm - N/A   Clear
8:53 AM 64.9 °F - 57.0 °F 75% 29.99 in 10.0 mi SW 4.6 mph - N/A   Clear
9:53 AM 70.0 °F - 51.1 °F 51% 29.99 in 10.0 mi SSW 5.8 mph - N/A   Clear
10:53 AM 73.0 °F - 51.1 °F 46% 29.99 in 10.0 mi SSW 8.1 mph - N/A   Clear
11:53 AM 75.0 °F - 54.0 °F 48% 29.98 in 10.0 mi WSW 11.5 mph - N/A   Clear
12:53 PM 77.0 °F - 55.0 °F 47% 29.97 in 10.0 mi West 15.0 mph - N/A   Clear
1:53 PM 78.1 °F - 55.0 °F 45% 29.96 in 10.0 mi West 13.8 mph - N/A   Mostly Cloudy
2:53 PM 81.0 °F 80.7 °F 55.0 °F 41% 29.95 in 10.0 mi West 15.0 mph 21.9 mph N/A   Clear
3:53 PM 81.0 °F 80.8 °F 55.9 °F 42% 29.94 in 10.0 mi West 16.1 mph 23.0 mph N/A   Partly Cloudy
4:53 PM 81.0 °F 81.1 °F 57.9 °F 45% 29.93 in 10.0 mi West 18.4 mph 23.0 mph N/A   Scattered Clouds
5:53 PM 79.0 °F - 57.9 °F 48% 29.93 in 10.0 mi West 17.3 mph 24.2 mph N/A   Clear
6:53 PM 78.1 °F - 57.9 °F 50% 29.94 in 10.0 mi West 13.8 mph 24.2 mph N/A   Scattered Clouds
7:53 PM 75.0 °F - 59.0 °F 57% 29.95 in 10.0 mi West 10.4 mph - N/A   Clear
8:53 PM 72.0 °F - 59.0 °F 64% 29.96 in 10.0 mi West 8.1 mph - N/A   Clear
9:53 PM 69.1 °F - 59.0 °F 70% 30.00 in 10.0 mi West 5.8 mph - N/A   Clear
10:53 PM 69.1 °F - 57.0 °F 65% 30.01 in 10.0 mi NNW 11.5 mph - N/A   Scattered Clouds
11:53 PM 64.9 °F - 55.9 °F 73% 30.03 in 10.0 mi NNW 6.9 mph - N/A   Mostly Cloudy